Dewpoint
31 26 25 24 24 22 23 22 21 21 22 23 22 21 21 22 23 22 19 21 25 26 30 31 32 31 31 29 29 31 32 34 39 48 50 51 52 53 54 54 53 53 52 50
29 26 26 26 27 25 24 22 21 22 24 21 21 22 24 24 24 22 22 25 26 28 30 30 31 31 31 30 29 29 30 32 36 43 46 48 46 47 47 52 52 51 50 48
26 27 28 27 26 25 24 22 22 22 24 23 22 22 23 25 24 22 25 26 28 29 30 30 30 31 31 31 30 30 29 30 32 36 42 44 44 42 44 44 47 50 49 48
28 29 27 27 25 25 23 24 24 24 22 21 23 20 22 22 19 26 26 28 28 29 30 30 29 30 31 31 32 30 31 31 30 31 33 35 38 38 40 41 40 41 46 46
29 27 27 26 25 25 25 25 23 23 24 25 24 22 21 22 20 26 27 28 28 29 29 29 29 29 30 30 31 31 31 31 31 31 31 31 32 34 35 36 34 35 40 43
26 26 26 26 26 26 26 25 24 23 25 24 24 21 20 19 21 25 26 27 28 29 29 29 30 29 29 30 29 28 29 30 31 31 31 31 30 30 30 31 32 34 35 38
27 26 26 26 24 26 25 23 24 22 23 22 22 21 20 21 23 26 26 26 28 28 28 28 27 27 28 28 29 26 26 25 28 30 30 30 30 30 30 30 31 31 32 34
27 24 27 25 26 27 27 27 28 22 19 21 26 23 23 27 27 26 25 25 25 25 26 27 27 26 27 27 25 25 25 24 24 25 28 28 27 28 30 31 31 32 31 32
24 24 27 27 27 26 25 24 29 25 23 23 23 24 25 27 25 23 23 23 23 24 24 23 27 26 25 26 25 23 23 23 23 24 25 25 24 24 24 27 30 30 32 30
31 28 30 27 26 27 25 31 29 30 23 19 22 21 20 26 25 23 22 22 22 22 22 22 21 25 22 23 24 22 21 22 22 23 25 25 25 24 22 22 24 26 28 30
31 32 28 30 28 28 25 25 30 27 25 20 17 17 20 26 26 24 23 22 21 20 15 19 19 15 18 19 19 18 20 21 22 20 22 24 25 26 24 22 22 24 26 27
34 32 28 27 29 31 29 29 28 26 23 25 23 23 27 27 26 25 20 20 18 19 9 12 17 12 12 15 14 14 14 19 21 19 19 22 23 24 23 23 23 24 25 27
35 31 25 22 24 32 31 29 28 28 28 25 24 21 26 26 25 25 24 19 19 20 12 9 10 12 10 10 11 8 9 12 19 19 18 18 21 22 22 22 21 22 23 24
37 31 26 20 19 22 23 26 28 29 27 24 24 24 29 27 30 33 28 25 23 20 14 9 10 10 12 13 10 10 10 12 16 16 19 20 20 21 21 23 23 22 21 21
33 25 26 28 27 26 26 24 24 24 23 23 21 20 20 21 22 19 20 20 13 18 8 7 9 11 10 12 15 13 11 13 16 16 18 18 21 21 22 23 23 22 21 20
28 20 24 19 24 24 22 22 22 21 19 18 19 19 21 17 15 14 16 12 7 6 10 5 8 10 12 12 15 18 15 15 18 18 20 21 23 23 22 21 21 20 19 18
23 20 12 15 19 18 11 17 16 16 17 17 16 18 21 18 15 11 12 12 10 6 8 5 8 11 14 15 17 17 16 17 20 21 20 21 22 22 22 20 19 18 17 16
23 17 15 8 9 1 10 13 13 13 15 18 19 17 19 12 8 12 11 12 12 10 10 10 10 13 16 18 17 15 18 20 20 19 18 18 18 17 17 16 15 15 15 15
22 22 18 8 6 10 11 11 10 10 10 15 17 19 7 9 8 6 8 11 11 11 13 14 15 18 17 17 15 18 18 19 18 16 16 16 16 15 14 13 12 13 13 12
12 18 17 7 4 -4 5 13 13 11 6 17 17 13 13 14 9 8 12 14 13 13 13 21 19 19 16 14 14 16 15 15 12 12 12 12 12 10 9 9 9 9 8 9
6 6 10 12 9 9 17 17 12 3 6 19 16 18 17 13 13 15 16 15 15 16 18 20 17 14 13 13 15 12 10 9 10 10 9 8 7 6 5 4 4 3 3 4
4 3 2 2 -2 1 16 14 10 14 23 23 20 16 15 15 16 16 15 15 15 19 17 16 15 13 11 12 12 8 6 8 8 6 5 3 1 2 2 0 -0 -0 -0 -1
5 8 5 7 8 14 16 16 19 19 20 21 20 18 16 16 14 14 14 15 17 15 14 14 12 11 10 11 10 7 6 6 5 2 -0 -1 -0 0 0 -1 -2 -2 -2 -2
12 11 10 10 9 11 11 13 14 15 16 16 15 16 17 16 16 15 16 17 15 16 14 13 10 7 6 7 8 4 4 4 0 -2 -1 -1 -2 -3 -3 -3 -2 -3 -3 -3
13 13 12 12 12 12 12 14 14 14 14 15 15 16 16 16 16 15 16 16 14 13 11 10 7 6 4 4 3 -0 2 0 -1 -1 -2 -3 -4 -5 -5 -5 -5 -3 -1 1
14 11 10 9 11 10 10 13 15 15 15 15 16 17 17 17 16 13 13 12 10 9 8 6 4 3 1 -1 -1 -1 -5 -4 -2 -3 -3 -4 -5 -5 -6 -6 -5 3 7 9
Lifted_Index
6 5 5 5 5 5 5 5 5 5 6 6 6 6 6 5 5 5 7 8 8 8 9 9 9 10 10 9 9 9 10 10 10 9 8 7 7 6 5 5 6 6 6 6
6 5 5 5 5 5 4 4 5 5 5 5 5 5 6 5 5 5 6 7 8 8 9 9 9 9 10 10 10 10 11 11 11 10 9 8 8 7 6 6 6 7 7 7
5 5 5 5 5 4 4 4 4 5 5 5 5 5 5 5 5 5 6 7 7 8 8 8 9 9 10 10 10 11 11 12 12 12 11 10 9 9 8 8 8 9 9 9
5 5 5 5 5 4 4 4 4 4 4 4 4 4 4 4 4 5 5 6 6 7 7 8 9 9 10 10 10 11 11 11 12 12 12 11 11 11 11 11 12 11 11 11
4 4 4 4 4 4 4 4 4 3 3 4 4 3 4 4 4 4 4 4 5 5 6 7 7 8 9 9 10 10 10 11 12 12 12 12 12 12 12 13 13 14 14 14
4 4 4 4 4 4 4 3 3 2 2 3 3 3 3 3 3 3 3 4 4 4 5 5 6 6 7 8 8 9 9 10 11 11 11 11 11 11 11 12 12 13 14 15
3 3 3 3 3 3 3 2 2 1 1 2 3 3 3 3 3 3 3 3 4 4 4 5 5 6 6 7 8 9 9 10 11 11 11 11 11 11 11 11 11 12 13 14
2 2 2 3 2 2 2 2 1 1 1 2 3 3 3 3 3 3 3 3 4 4 5 5 5 6 7 8 9 10 11 11 12 12 12 12 11 11 11 11 11 12 13 13
2 2 3 3 2 2 2 2 2 2 1 2 3 3 3 3 3 3 3 3 4 4 5 5 6 7 7 8 10 11 12 13 13 13 13 13 13 12 12 12 12 12 13 14
3 3 3 3 3 2 2 2 2 2 1 1 2 3 3 3 3 3 3 3 4 4 4 5 6 7 7 8 10 11 12 13 14 15 15 15 15 15 15 15 14 14 14 15
2 3 3 3 3 2 2 2 2 2 1 1 1 2 3 3 2 2 3 3 3 4 4 5 6 7 8 9 10 11 12 13 14 15 16 17 17 17 17 17 17 16 16 16
2 2 3 3 3 2 2 2 2 2 2 1 1 2 2 2 2 2 2 3 3 4 4 5 6 7 9 10 11 12 13 14 15 15 16 16 17 17 17 17 17 17 17 17
2 2 3 3 3 3 2 2 2 2 2 1 1 2 2 2 1 2 2 3 3 4 5 6 7 9 10 12 12 13 14 15 15 16 16 16 16 16 17 17 17 17 17 17
3 3 3 3 3 3 3 3 3 2 2 2 2 2 2 2 2 2 3 3 4 4 5 6 8 10 12 13 13 14 15 15 15 15 15 15 15 16 16 16 16 16 17 17
4 4 4 4 4 4 4 4 4 3 3 3 3 3 3 3 3 3 4 4 4 5 6 8 10 11 12 13 13 13 14 14 15 15 15 15 15 15 15 15 16 16 16 16
5 5 5 4 4 4 4 4 4 4 4 4 3 3 3 3 3 4 4 5 5 6 7 9 10 11 12 12 12 12 12 13 13 13 13 14 14 14 14 15 15 15 16 16
6 6 5 4 4 4 4 4 5 5 5 4 4 4 4 4 4 5 5 6 6 7 8 9 9 10 10 10 10 10 10 10 11 11 12 12 13 13 13 14 14 14 15 15
6 6 5 4 4 3 4 5 5 5 5 5 5 5 5 5 5 5 6 6 6 7 7 7 7 8 8 8 8 8 8 9 9 10 10 11 11 12 12 13 13 14 14 14
7 6 5 4 3 3 4 5 5 5 6 6 5 5 5 5 5 5 5 6 6 6 6 6 6 6 6 7 7 7 8 8 9 9 10 11 11 12 12 12 13 13 14 14
7 6 5 4 3 3 5 6 6 5 5 5 5 5 5 4 4 5 5 5 5 5 5 6 6 6 6 6 7 7 7 8 9 10 10 11 12 12 13 13 13 14 14 15
6 5 5 4 3 4 5 6 5 5 5 5 5 4 4 4 4 5 5 5 5 5 5 6 6 6 6 7 7 7 8 9 10 10 11 11 12 13 13 14 15 15 16 17
5 5 4 4 4 4 5 5 4 4 4 4 4 4 4 4 4 5 5 5 5 5 5 6 6 6 6 7 7 7 8 9 10 10 11 11 12 13 14 15 16 17 18 18
5 5 5 5 5 4 4 4 3 3 3 4 4 4 4 4 5 5 5 5 5 5 5 5 5 5 6 6 7 7 8 9 9 10 10 11 12 13 15 17 18 19 19 19
6 6 6 5 5 4 3 3 3 3 3 3 4 4 4 4 4 5 5 5 5 5 5 5 5 5 5 6 7 7 8 8 9 9 10 10 12 14 17 19 20 20 20 20
6 6 5 4 3 3 3 3 3 3 3 3 4 4 4 4 4 4 4 5 4 4 4 4 4 4 5 5 6 7 8 8 8 9 9 11 13 16 18 20 21 21 22 22
6 6 5 3 2 2 2 3 3 3 3 3 4 4 4 4 4 4 4 4 4 4 4 4 4 4 4 5 6 7 8 8 8 8 9 11 14 17 19 20 21 22 22 22